Time,TemperatureF,DewpointF,PressureIn,WindDirection,WindDirectionDegrees,WindSpeedMPH,WindSpeedGustMPH,Humidity,HourlyPrecipIn,Conditions,Clouds,dailyrainin,SoftwareType,DateUTC
2013-06-03 00:00:00,61.7,61.5,29.87,SSW,202,6.1,15.2,100,0.00,,,0.00,Rainwise IP-100,2013-06-03 04:00:00,
2013-06-03 00:01:00,61.7,61.5,29.87,SSW,202,5.8,15.2,100,0.00,,,0.00,Rainwise IP-100,2013-06-03 04:01:00,
2013-06-03 00:06:00,61.7,61.5,29.87,SSW,202,6.5,11.4,100,0.00,,,0.00,Rainwise IP-100,2013-06-03 04:06:00,
2013-06-03 00:11:00,61.7,61.5,29.87,SSW,202,6.8,9.1,100,0.00,,,0.00,Rainwise IP-100,2013-06-03 04:11:00,
2013-06-03 00:16:00,61.7,61.5,29.87,SSW,202,5.8,11.9,100,0.00,,,0.00,Rainwise IP-100,2013-06-03 04:16:00,
2013-06-03 00:21:00,61.7,61.5,29.87,SSW,202,8.2,8.6,100,0.00,,,0.00,Rainwise IP-100,2013-06-03 04:21:00,
2013-06-03 00:26:00,61.7,61.5,29.87,SSW,202,5.1,11.0,100,0.00,,,0.00,Rainwise IP-100,2013-06-03 04:26:00,
2013-06-03 00:31:00,61.7,61.5,29.87,SW,225,8.9,12.4,100,0.00,,,0.00,Rainwise IP-100,2013-06-03 04:31:00,
2013-06-03 00:36:00,61.7,61.5,29.87,SW,225,3.3,10.5,100,0.00,,,0.00,Rainwise IP-100,2013-06-03 04:36:00,
2013-06-03 00:41:00,61.7,61.5,29.88,SSE,157,3.0,11.0,100,0.00,,,0.00,Rainwise IP-100,2013-06-03 04:41:00,
2013-06-03 00:46:00,61.7,61.5,29.87,SW,225,6.8,11.7,100,0.00,,,0.00,Rainwise IP-100,2013-06-03 04:46:00,
2013-06-03 00:51:00,61.7,61.5,29.88,SSW,202,5.4,12.6,100,0.00,,,0.00,Rainwise IP-100,2013-06-03 04:51:00,
2013-06-03 00:56:00,61.7,61.5,29.87,SW,225,8.4,14.9,100,0.00,,,0.00,Rainwise IP-100,2013-06-03 04:56:00,
2013-06-03 01:01:00,61.7,61.5,29.88,SSW,202,7.5,13.5,100,0.00,,,0.00,Rainwise IP-100,2013-06-03 05:01:00,
2013-06-03 01:06:00,61.7,61.5,29.87,SSW,202,6.1,9.1,100,0.00,,,0.00,Rainwise IP-100,2013-06-03 05:06:00,
2013-06-03 01:11:00,61.6,61.5,29.87,South,180,5.4,10.7,100,0.00,,,0.00,Rainwise IP-100,2013-06-03 05:11:00,
2013-06-03 01:16:00,61.6,61.5,29.87,SW,225,2.3,10.5,100,0.00,,,0.00,Rainwise IP-100,2013-06-03 05:16:00,
2013-06-03 01:21:00,61.5,61.5,29.86,SSW,202,9.8,14.0,100,0.00,,,0.00,Rainwise IP-100,2013-06-03 05:21:00,
2013-06-03 01:26:00,61.5,61.5,29.87,SW,225,8.9,11.9,100,0.00,,,0.00,Rainwise IP-100,2013-06-03 05:26:00,
2013-06-03 01:31:00,61.4,61.5,29.87,SSW,202,12.6,12.6,100,0.00,,,0.00,Rainwise IP-100,2013-06-03 05:31:00,
2013-06-03 01:36:00,61.4,61.5,29.87,WSW,247,4.2,15.4,100,0.00,,,0.00,Rainwise IP-100,2013-06-03 05:36:00,
2013-06-03 01:41:00,61.3,61.5,29.86,SSW,202,7.7,10.0,100,0.00,,,0.00,Rainwise IP-100,2013-06-03 05:41:00,
2013-06-03 01:46:00,61.3,61.5,29.86,SSW,202,3.7,10.7,100,0.00,,,0.00,Rainwise IP-100,2013-06-03 05:46:00,
2013-06-03 01:51:00,61.3,61.5,29.86,SSW,202,7.2,9.3,100,0.00,,,0.00,Rainwise IP-100,2013-06-03 05:51:00,
2013-06-03 01:56:00,61.3,61.5,29.86,SSW,202,9.6,10.5,100,0.00,,,0.00,Rainwise IP-100,2013-06-03 05:56:00,
2013-06-03 02:01:00,61.3,61.5,29.86,SSW,202,6.8,9.6,100,0.00,,,0.00,Rainwise IP-100,2013-06-03 06:01:00,
2013-06-03 02:06:00,61.3,61.5,29.86,South,180,6.1,8.4,100,0.00,,,0.00,Rainwise IP-100,2013-06-03 06:06:00,
2013-06-03 02:11:00,61.3,61.5,29.86,SSW,202,4.7,7.2,100,0.00,,,0.00,Rainwise IP-100,2013-06-03 06:11:00,
2013-06-03 02:16:00,61.3,61.5,29.86,SW,225,3.3,10.5,100,0.00,,,0.00,Rainwise IP-100,2013-06-03 06:16:00,
2013-06-03 02:21:00,61.3,61.5,29.85,SW,225,6.3,9.6,100,0.06,,,0.01,Rainwise IP-100,2013-06-03 06:21:00,
2013-06-03 02:26:00,61.3,61.5,29.85,SSW,202,4.7,9.1,100,0.06,,,0.01,Rainwise IP-100,2013-06-03 06:26:00,
2013-06-03 02:31:00,61.3,61.5,29.85,SSW,202,10.3,10.3,100,0.00,,,0.01,Rainwise IP-100,2013-06-03 06:31:00,
2013-06-03 02:36:00,61.3,61.5,29.84,SW,225,3.5,10.7,100,0.00,,,0.01,Rainwise IP-100,2013-06-03 06:36:00,
2013-06-03 02:41:00,61.3,61.5,29.84,SSW,202,7.7,10.5,100,0.00,,,0.01,Rainwise IP-100,2013-06-03 06:41:00,
2013-06-03 02:46:00,61.3,61.5,29.84,South,180,6.8,10.5,100,0.00,,,0.01,Rainwise IP-100,2013-06-03 06:46:00,
2013-06-03 02:51:00,61.3,61.5,29.84,SSW,202,4.7,9.3,100,0.00,,,0.01,Rainwise IP-100,2013-06-03 06:51:00,
2013-06-03 02:56:00,61.3,61.5,29.83,South,180,5.4,11.2,100,0.00,,,0.01,Rainwise IP-100,2013-06-03 06:56:00,
2013-06-03 03:01:00,61.3,61.5,29.84,South,180,6.3,11.7,100,0.00,,,0.01,Rainwise IP-100,2013-06-03 07:01:00,
2013-06-03 03:06:00,61.3,61.5,29.84,SSW,202,6.5,11.2,100,0.00,,,0.01,Rainwise IP-100,2013-06-03 07:06:00,
2013-06-03 03:11:00,61.2,61.0,29.84,South,180,7.5,13.3,100,0.00,,,0.01,Rainwise IP-100,2013-06-03 07:11:00,
2013-06-03 03:16:00,61.2,61.0,29.83,SSW,202,8.9,14.0,100,0.00,,,0.01,Rainwise IP-100,2013-06-03 07:16:00,
2013-06-03 03:21:00,61.2,61.0,29.84,SSW,202,5.6,12.6,100,0.00,,,0.01,Rainwise IP-100,2013-06-03 07:21:00,
2013-06-03 03:26:00,61.2,61.0,29.84,SSW,202,6.5,14.5,100,0.00,,,0.01,Rainwise IP-100,2013-06-03 07:26:00,
2013-06-03 03:31:00,61.3,61.5,29.85,SSW,202,4.4,15.2,100,0.00,,,0.01,Rainwise IP-100,2013-06-03 07:31:00,
2013-06-03 03:36:00,61.3,61.5,29.85,SSW,202,7.2,11.0,100,0.12,,,0.03,Rainwise IP-100,2013-06-03 07:36:00,
2013-06-03 03:41:00,61.4,61.5,29.84,SW,225,1.4,10.7,100,0.24,,,0.05,Rainwise IP-100,2013-06-03 07:41:00,
2013-06-03 03:46:00,61.6,61.5,29.84,WSW,247,7.9,15.9,100,0.66,,,0.14,Rainwise IP-100,2013-06-03 07:46:00,
2013-06-03 03:51:00,62.1,62.0,29.84,WSW,247,4.0,20.8,100,1.50,,,0.30,Rainwise IP-100,2013-06-03 07:51:00,
2013-06-03 03:56:00,62.6,62.5,29.83,SSW,202,5.6,14.2,100,1.38,,,0.37,Rainwise IP-100,2013-06-03 07:56:00,
2013-06-03 04:01:00,62.9,63.0,29.84,SSW,202,7.5,17.0,100,0.60,,,0.40,Rainwise IP-100,2013-06-03 08:01:00,
2013-06-03 04:06:00,62.8,63.0,29.85,South,180,10.5,14.2,100,0.24,,,0.41,Rainwise IP-100,2013-06-03 08:06:00,
2013-06-03 04:11:00,62.5,62.5,29.85,WSW,247,4.9,15.4,100,0.06,,,0.41,Rainwise IP-100,2013-06-03 08:11:00,
2013-06-03 04:16:00,62.2,62.0,29.86,SW,225,5.8,12.8,100,0.12,,,0.43,Rainwise IP-100,2013-06-03 08:16:00,
2013-06-03 04:21:00,62.1,62.0,29.85,SSW,202,2.1,13.5,100,0.24,,,0.45,Rainwise IP-100,2013-06-03 08:21:00,
2013-06-03 04:26:00,62.0,62.0,29.86,SW,225,7.9,11.9,100,0.24,,,0.47,Rainwise IP-100,2013-06-03 08:26:00,
2013-06-03 04:31:00,61.8,62.0,29.86,SW,225,3.5,8.4,100,0.24,,,0.49,Rainwise IP-100,2013-06-03 08:31:00,
2013-06-03 04:36:00,61.7,61.5,29.86,SSW,202,3.7,8.9,100,0.12,,,0.49,Rainwise IP-100,2013-06-03 08:36:00,
2013-06-03 04:41:00,61.7,61.5,29.86,SW,225,2.3,8.2,100,0.06,,,0.50,Rainwise IP-100,2013-06-03 08:41:00,
2013-06-03 04:46:00,61.7,61.5,29.86,SW,225,5.1,7.2,100,0.06,,,0.50,Rainwise IP-100,2013-06-03 08:46:00,
2013-06-03 04:51:00,61.7,61.5,29.86,WSW,247,2.8,8.9,100,0.00,,,0.50,Rainwise IP-100,2013-06-03 08:51:00,
2013-06-03 04:56:00,61.8,62.0,29.86,SW,225,3.5,8.2,100,0.06,,,0.51,Rainwise IP-100,2013-06-03 08:56:00,
2013-06-03 05:01:00,61.8,62.0,29.86,SSW,202,5.6,13.5,100,0.12,,,0.52,Rainwise IP-100,2013-06-03 09:01:00,
2013-06-03 05:06:00,61.9,62.0,29.86,West,270,1.9,9.3,100,0.12,,,0.53,Rainwise IP-100,2013-06-03 09:06:00,
2013-06-03 05:11:00,62.1,62.0,29.86,South,180,1.9,10.0,100,0.06,,,0.53,Rainwise IP-100,2013-06-03 09:11:00,
2013-06-03 05:16:00,62.2,62.0,29.86,WSW,247,4.2,8.6,100,0.00,,,0.53,Rainwise IP-100,2013-06-03 09:16:00,
2013-06-03 05:21:00,62.3,62.5,29.86,SSW,202,2.1,11.0,100,0.06,,,0.54,Rainwise IP-100,2013-06-03 09:21:00,
2013-06-03 05:26:00,62.4,62.5,29.86,SW,225,4.7,10.5,100,0.12,,,0.55,Rainwise IP-100,2013-06-03 09:26:00,
2013-06-03 05:31:00,62.4,62.5,29.86,WSW,247,4.0,14.9,100,0.06,,,0.55,Rainwise IP-100,2013-06-03 09:31:00,
2013-06-03 05:36:00,62.4,62.5,29.86,SSW,202,4.7,9.6,100,0.06,,,0.56,Rainwise IP-100,2013-06-03 09:36:00,
2013-06-03 05:41:00,62.2,62.0,29.85,WSW,247,5.6,10.3,100,0.06,,,0.56,Rainwise IP-100,2013-06-03 09:41:00,
2013-06-03 05:46:00,62.2,62.0,29.85,WSW,247,5.4,14.2,100,0.06,,,0.57,Rainwise IP-100,2013-06-03 09:46:00,
2013-06-03 05:51:00,62.2,62.0,29.85,SW,225,2.6,8.4,100,0.06,,,0.57,Rainwise IP-100,2013-06-03 09:51:00,
2013-06-03 05:56:00,62.2,62.0,29.86,SSW,202,3.0,11.4,100,0.00,,,0.57,Rainwise IP-100,2013-06-03 09:56:00,
2013-06-03 06:01:00,62.2,62.0,29.86,WSW,247,5.1,10.7,100,0.06,,,0.58,Rainwise IP-100,2013-06-03 10:01:00,
2013-06-03 06:06:00,62.1,62.0,29.86,SW,225,4.7,11.0,100,0.06,,,0.58,Rainwise IP-100,2013-06-03 10:06:00,
2013-06-03 06:11:00,62.0,62.0,29.86,SW,225,2.6,11.2,100,0.06,,,0.59,Rainwise IP-100,2013-06-03 10:11:00,
2013-06-03 06:16:00,62.0,62.0,29.85,South,180,6.8,9.3,100,0.12,,,0.60,Rainwise IP-100,2013-06-03 10:16:00,
2013-06-03 06:21:00,62.1,62.0,29.86,SW,225,3.3,10.5,100,0.24,,,0.63,Rainwise IP-100,2013-06-03 10:21:00,
2013-06-03 06:26:00,62.1,62.0,29.86,SSW,202,5.4,12.4,100,0.30,,,0.65,Rainwise IP-100,2013-06-03 10:26:00,
2013-06-03 06:31:00,62.2,62.0,29.86,South,180,4.0,9.3,100,0.30,,,0.68,Rainwise IP-100,2013-06-03 10:31:00,
2013-06-03 06:36:00,62.2,62.0,29.86,SW,225,4.2,9.6,100,0.18,,,0.68,Rainwise IP-100,2013-06-03 10:36:00,
2013-06-03 06:41:00,62.2,62.0,29.87,SSW,202,6.8,10.7,100,0.06,,,0.69,Rainwise IP-100,2013-06-03 10:41:00,
2013-06-03 06:46:00,62.3,62.5,29.87,SSW,202,3.3,11.2,100,0.06,,,0.69,Rainwise IP-100,2013-06-03 10:46:00,
2013-06-03 06:51:00,62.4,62.5,29.87,SSW,202,9.8,10.3,100,0.06,,,0.70,Rainwise IP-100,2013-06-03 10:51:00,
2013-06-03 06:56:00,62.3,62.5,29.87,SW,225,7.5,11.7,100,0.12,,,0.71,Rainwise IP-100,2013-06-03 10:56:00,
2013-06-03 07:01:00,62.1,62.0,29.87,North,360,5.1,9.1,100,0.12,,,0.72,Rainwise IP-100,2013-06-03 11:01:00,
2013-06-03 07:06:00,62.0,62.0,29.87,SW,225,0.0,9.1,100,0.12,,,0.73,Rainwise IP-100,2013-06-03 11:06:00,
2013-06-03 07:11:00,61.9,62.0,29.87,WSW,247,5.8,9.6,100,0.18,,,0.75,Rainwise IP-100,2013-06-03 11:11:00,
2013-06-03 07:16:00,61.8,62.0,29.87,SW,225,2.3,7.9,100,0.12,,,0.75,Rainwise IP-100,2013-06-03 11:16:00,
2013-06-03 07:21:00,61.8,62.0,29.87,SSW,202,3.3,8.9,100,0.00,,,0.75,Rainwise IP-100,2013-06-03 11:21:00,
2013-06-03 07:26:00,61.7,61.5,29.87,WSW,247,3.7,9.6,100,0.00,,,0.75,Rainwise IP-100,2013-06-03 11:26:00,
2013-06-03 07:31:00,61.8,62.0,29.87,SSW,202,4.0,7.9,100,0.00,,,0.75,Rainwise IP-100,2013-06-03 11:31:00,
2013-06-03 07:36:00,61.9,62.0,29.87,North,360,3.3,10.7,100,0.00,,,0.75,Rainwise IP-100,2013-06-03 11:36:00,
2013-06-03 07:41:00,62.1,62.0,29.87,SW,225,4.4,9.8,100,0.00,,,0.75,Rainwise IP-100,2013-06-03 11:41:00,
2013-06-03 07:46:00,62.2,62.0,29.86,SSW,202,3.5,6.5,100,0.00,,,0.75,Rainwise IP-100,2013-06-03 11:46:00,
2013-06-03 07:51:00,62.3,62.5,29.87,SW,225,4.7,8.2,100,0.00,,,0.75,Rainwise IP-100,2013-06-03 11:51:00,
2013-06-03 07:56:00,62.4,62.5,29.87,SW,225,4.4,9.3,100,0.00,,,0.75,Rainwise IP-100,2013-06-03 11:56:00,
2013-06-03 08:01:00,62.3,62.5,29.87,North,360,7.5,8.4,100,0.00,,,0.75,Rainwise IP-100,2013-06-03 12:01:00,
2013-06-03 08:06:00,62.4,62.5,29.87,SW,225,4.9,11.2,100,0.00,,,0.75,Rainwise IP-100,2013-06-03 12:06:00,
2013-06-03 08:11:00,62.4,62.5,29.87,WSW,247,2.6,9.1,100,0.00,,,0.75,Rainwise IP-100,2013-06-03 12:11:00,
2013-06-03 08:16:00,62.3,62.5,29.86,SSW,202,7.9,7.9,100,0.00,,,0.75,Rainwise IP-100,2013-06-03 12:16:00,
2013-06-03 08:21:00,62.2,62.0,29.86,SSW,202,7.2,9.8,100,0.00,,,0.75,Rainwise IP-100,2013-06-03 12:21:00,
2013-06-03 08:26:00,62.2,62.0,29.87,SSW,202,4.4,7.9,100,0.00,,,0.75,Rainwise IP-100,2013-06-03 12:26:00,
2013-06-03 08:31:00,62.1,62.0,29.86,South,180,2.8,7.2,100,0.00,,,0.75,Rainwise IP-100,2013-06-03 12:31:00,
2013-06-03 08:36:00,62.0,62.0,29.87,South,180,2.1,6.8,100,0.00,,,0.75,Rainwise IP-100,2013-06-03 12:36:00,
2013-06-03 08:41:00,61.9,62.0,29.86,SW,225,3.3,8.4,100,0.00,,,0.75,Rainwise IP-100,2013-06-03 12:41:00,
2013-06-03 08:46:00,61.8,62.0,29.86,SW,225,3.5,8.2,100,0.00,,,0.75,Rainwise IP-100,2013-06-03 12:46:00,
2013-06-03 08:51:00,61.8,62.0,29.86,SSW,202,4.0,9.3,100,0.00,,,0.76,Rainwise IP-100,2013-06-03 12:51:00,
2013-06-03 08:56:00,61.8,62.0,29.86,WSW,247,3.5,7.9,100,0.06,,,0.76,Rainwise IP-100,2013-06-03 12:56:00,
2013-06-03 09:01:00,61.8,62.0,29.86,SW,225,3.5,6.1,100,0.06,,,0.76,Rainwise IP-100,2013-06-03 13:01:00,
2013-06-03 09:06:00,61.8,62.0,29.86,SSW,202,0.0,6.8,100,0.00,,,0.76,Rainwise IP-100,2013-06-03 13:06:00,
2013-06-03 09:11:00,61.7,61.5,29.85,SW,225,1.6,7.0,100,0.06,,,0.77,Rainwise IP-100,2013-06-03 13:11:00,
2013-06-03 09:16:00,61.7,61.5,29.86,SSW,202,4.0,7.0,100,0.06,,,0.77,Rainwise IP-100,2013-06-03 13:16:00,
2013-06-03 09:21:00,61.6,61.5,29.85,SW,225,3.0,8.6,100,0.06,,,0.78,Rainwise IP-100,2013-06-03 13:21:00,
2013-06-03 09:26:00,61.6,61.5,29.86,SW,225,3.0,7.9,100,0.06,,,0.78,Rainwise IP-100,2013-06-03 13:26:00,
2013-06-03 09:31:00,61.6,61.5,29.86,WSW,247,2.6,5.8,100,0.06,,,0.79,Rainwise IP-100,2013-06-03 13:31:00,
2013-06-03 09:36:00,61.6,61.5,29.86,SSW,202,7.5,7.5,100,0.12,,,0.80,Rainwise IP-100,2013-06-03 13:36:00,
2013-06-03 09:41:00,61.4,61.5,29.87,WSW,247,4.7,7.5,100,0.18,,,0.82,Rainwise IP-100,2013-06-03 13:41:00,
2013-06-03 09:46:00,61.3,61.5,29.86,West,270,4.4,9.1,100,0.30,,,0.85,Rainwise IP-100,2013-06-03 13:46:00,
2013-06-03 09:51:00,61.2,61.0,29.86,SSW,202,1.9,9.8,100,0.30,,,0.87,Rainwise IP-100,2013-06-03 13:51:00,
2013-06-03 09:56:00,61.3,61.5,29.85,SSW,202,2.3,7.0,100,0.30,,,0.90,Rainwise IP-100,2013-06-03 13:56:00,
2013-06-03 10:01:00,61.3,61.5,29.85,SSW,202,2.6,7.2,100,0.48,,,0.96,Rainwise IP-100,2013-06-03 14:01:00,
2013-06-03 10:06:00,61.3,61.5,29.85,SSW,202,3.0,6.8,100,0.90,,,1.05,Rainwise IP-100,2013-06-03 14:06:00,
2013-06-03 10:11:00,61.4,61.5,29.85,WSW,247,2.1,6.5,100,0.78,,,1.08,Rainwise IP-100,2013-06-03 14:11:00,
2013-06-03 10:16:00,61.6,61.5,29.85,WSW,247,3.5,8.4,100,0.24,,,1.09,Rainwise IP-100,2013-06-03 14:16:00,
2013-06-03 10:21:00,61.7,61.5,29.86,SSW,202,4.4,13.8,100,0.24,,,1.12,Rainwise IP-100,2013-06-03 14:21:00,
2013-06-03 10:26:00,61.7,61.5,29.85,SW,225,6.3,8.2,100,0.48,,,1.17,Rainwise IP-100,2013-06-03 14:26:00,
2013-06-03 10:31:00,61.7,61.5,29.85,SW,225,5.4,10.7,100,0.36,,,1.18,Rainwise IP-100,2013-06-03 14:31:00,
2013-06-03 10:36:00,61.7,61.5,29.85,SSW,202,5.8,10.0,100,0.12,,,1.19,Rainwise IP-100,2013-06-03 14:36:00,
2013-06-03 10:41:00,61.7,61.5,29.85,SSW,202,5.4,8.9,100,0.06,,,1.19,Rainwise IP-100,2013-06-03 14:41:00,
2013-06-03 10:46:00,61.9,62.0,29.85,WSW,247,4.7,10.0,100,0.00,,,1.19,Rainwise IP-100,2013-06-03 14:46:00,
2013-06-03 10:51:00,62.1,62.0,29.85,SSE,157,6.1,9.8,100,0.00,,,1.19,Rainwise IP-100,2013-06-03 14:51:00,
2013-06-03 10:56:00,62.2,62.0,29.85,WSW,247,3.0,9.1,100,0.00,,,1.19,Rainwise IP-100,2013-06-03 14:56:00,
2013-06-03 11:01:00,62.4,62.5,29.85,WNW,292,2.1,9.3,100,0.00,,,1.19,Rainwise IP-100,2013-06-03 15:01:00,
2013-06-03 11:06:00,62.5,62.5,29.85,SSW,202,4.9,9.3,100,0.00,,,1.19,Rainwise IP-100,2013-06-03 15:06:00,
2013-06-03 11:11:00,62.6,62.5,29.85,WSW,247,4.2,10.0,100,0.00,,,1.19,Rainwise IP-100,2013-06-03 15:11:00,
2013-06-03 11:16:00,62.5,62.5,29.85,WNW,292,4.4,8.4,100,0.00,,,1.19,Rainwise IP-100,2013-06-03 15:16:00,
2013-06-03 11:21:00,62.3,62.5,29.85,WSW,247,2.8,13.1,100,0.00,,,1.20,Rainwise IP-100,2013-06-03 15:21:00,
2013-06-03 11:26:00,61.9,62.0,29.85,South,180,3.5,10.3,100,0.42,,,1.27,Rainwise IP-100,2013-06-03 15:26:00,
2013-06-03 11:31:00,61.8,62.0,29.85,West,270,2.6,11.2,100,0.72,,,1.31,Rainwise IP-100,2013-06-03 15:31:00,
2013-06-03 11:36:00,61.9,62.0,29.85,WSW,247,5.4,9.1,100,0.48,,,1.34,Rainwise IP-100,2013-06-03 15:36:00,
2013-06-03 11:40:00,62.3,62.5,29.85,SSW,202,6.3,12.8,100,0.42,,,1.39,Rainwise IP-100,2013-06-03 15:40:00,
2013-06-03 11:45:00,62.6,62.5,29.84,West,270,4.7,17.7,100,0.42,,,1.41,Rainwise IP-100,2013-06-03 15:45:00,
2013-06-03 11:50:00,62.8,63.0,29.85,WSW,247,7.5,16.1,100,0.24,,,1.41,Rainwise IP-100,2013-06-03 15:50:00,
2013-06-03 11:55:00,62.9,63.0,29.85,South,180,6.8,11.4,100,0.06,,,1.42,Rainwise IP-100,2013-06-03 15:55:00,
2013-06-03 12:00:00,62.8,63.0,29.85,West,270,7.0,17.5,100,0.06,,,1.42,Rainwise IP-100,2013-06-03 16:00:00,
2013-06-03 12:05:00,62.7,62.5,29.86,SSW,202,9.1,13.3,100,0.06,,,1.42,Rainwise IP-100,2013-06-03 16:05:00,
2013-06-03 12:10:00,62.5,62.5,29.85,SW,225,7.5,14.5,100,0.06,,,1.43,Rainwise IP-100,2013-06-03 16:10:00,
2013-06-03 12:15:00,62.3,62.5,29.85,SW,225,6.3,16.3,100,0.06,,,1.43,Rainwise IP-100,2013-06-03 16:15:00,
2013-06-03 12:20:00,62.1,62.0,29.85,SSW,202,5.6,13.8,100,0.00,,,1.43,Rainwise IP-100,2013-06-03 16:20:00,
2013-06-03 12:25:00,62.1,62.0,29.85,SSW,202,3.7,11.0,100,0.00,,,1.43,Rainwise IP-100,2013-06-03 16:25:00,
2013-06-03 12:30:00,62.3,62.5,29.85,SSW,202,4.4,8.9,100,0.00,,,1.43,Rainwise IP-100,2013-06-03 16:30:00,
2013-06-03 12:35:00,62.5,62.5,29.85,WSW,247,6.5,10.5,100,0.00,,,1.43,Rainwise IP-100,2013-06-03 16:35:00,
2013-06-03 12:40:00,63.0,63.0,29.84,WSW,247,5.1,9.6,100,0.00,,,1.43,Rainwise IP-100,2013-06-03 16:40:00,
2013-06-03 12:45:00,63.5,63.5,29.84,WSW,247,3.5,13.5,100,0.00,,,1.43,Rainwise IP-100,2013-06-03 16:45:00,
2013-06-03 12:50:00,63.8,64.0,29.84,SW,225,3.0,12.4,100,0.00,,,1.43,Rainwise IP-100,2013-06-03 16:50:00,
2013-06-03 12:53:00,64.0,64.0,29.85,WSW,247,4.7,9.1,100,0.00,,,1.43,Rainwise IP-100,2013-06-03 16:53:00,
2013-06-03 12:55:00,64.2,64.0,29.85,SSW,202,3.7,10.7,100,0.00,,,1.43,Rainwise IP-100,2013-06-03 16:55:00,
2013-06-03 13:00:00,64.4,64.5,29.85,SSW,202,7.5,12.4,100,0.06,,,1.44,Rainwise IP-100,2013-06-03 17:00:00,
2013-06-03 13:05:00,64.4,64.5,29.85,South,180,3.5,12.4,100,0.06,,,1.44,Rainwise IP-100,2013-06-03 17:05:00,
2013-06-03 13:10:00,64.2,64.0,29.85,SSW,202,4.4,12.6,100,0.00,,,1.44,Rainwise IP-100,2013-06-03 17:10:00,
2013-06-03 13:15:00,63.8,64.0,29.85,SSW,202,2.3,10.7,100,0.00,,,1.44,Rainwise IP-100,2013-06-03 17:15:00,
2013-06-03 13:20:00,63.6,63.5,29.84,SW,225,6.1,8.9,100,0.12,,,1.46,Rainwise IP-100,2013-06-03 17:20:00,
2013-06-03 13:25:00,63.3,63.5,29.84,WSW,247,8.2,8.4,100,0.24,,,1.49,Rainwise IP-100,2013-06-03 17:25:00,
2013-06-03 13:30:00,63.2,63.0,29.84,WSW,247,8.4,11.7,100,0.30,,,1.52,Rainwise IP-100,2013-06-03 17:30:00,
2013-06-03 13:35:00,63.2,63.0,29.84,SW,225,2.6,10.0,100,0.84,,,1.64,Rainwise IP-100,2013-06-03 17:35:00,
2013-06-03 13:40:00,63.3,63.5,29.84,SW,225,2.1,9.3,100,0.90,,,1.66,Rainwise IP-100,2013-06-03 17:40:00,
2013-06-03 13:45:00,63.3,63.5,29.84,SW,225,4.2,8.6,100,0.42,,,1.69,Rainwise IP-100,2013-06-03 17:45:00,
2013-06-03 13:50:00,63.3,63.5,29.83,SW,225,4.0,10.7,100,0.30,,,1.73,Rainwise IP-100,2013-06-03 17:50:00,
2013-06-03 13:55:00,63.3,63.5,29.84,SW,225,4.7,10.3,100,0.60,,,1.79,Rainwise IP-100,2013-06-03 17:55:00,
2013-06-03 14:00:00,63.3,63.5,29.83,SSW,202,3.0,7.9,100,0.48,,,1.79,Rainwise IP-100,2013-06-03 18:00:00,
2013-06-03 14:05:00,63.3,63.5,29.84,South,180,4.7,11.9,100,0.06,,,1.80,Rainwise IP-100,2013-06-03 18:05:00,
2013-06-03 14:10:00,63.4,63.5,29.83,South,180,3.0,15.2,100,0.48,,,1.89,Rainwise IP-100,2013-06-03 18:10:00,
2013-06-03 14:15:00,63.4,63.5,29.83,South,180,5.8,14.0,100,1.14,,,2.01,Rainwise IP-100,2013-06-03 18:15:00,
2013-06-03 14:20:00,63.3,63.5,29.84,SW,225,4.0,11.9,100,1.38,,,2.13,Rainwise IP-100,2013-06-03 18:20:00,
2013-06-03 14:25:00,63.1,63.0,29.84,SSW,202,4.0,9.1,100,1.32,,,2.21,Rainwise IP-100,2013-06-03 18:25:00,
2013-06-03 14:30:00,62.9,63.0,29.83,South,180,5.6,11.9,100,0.96,,,2.28,Rainwise IP-100,2013-06-03 18:30:00,
2013-06-03 14:35:00,62.7,62.5,29.83,SSW,202,10.7,11.0,100,0.60,,,2.32,Rainwise IP-100,2013-06-03 18:35:00,
2013-06-03 14:40:00,62.5,62.5,29.83,SW,225,5.4,12.4,100,0.48,,,2.35,Rainwise IP-100,2013-06-03 18:40:00,
2013-06-03 14:45:00,62.3,62.5,29.84,SW,225,4.0,11.2,100,0.54,,,2.40,Rainwise IP-100,2013-06-03 18:45:00,
2013-06-03 14:50:00,62.2,62.0,29.84,South,180,5.1,12.8,100,0.90,,,2.51,Rainwise IP-100,2013-06-03 18:50:00,
2013-06-03 14:55:00,62.0,62.0,29.83,SSE,157,10.5,12.8,100,1.20,,,2.61,Rainwise IP-100,2013-06-03 18:55:00,
2013-06-03 15:00:00,62.0,62.0,29.84,SW,225,8.2,11.2,100,1.20,,,2.70,Rainwise IP-100,2013-06-03 19:00:00,
2013-06-03 15:05:00,62.0,62.0,29.84,SSW,202,6.1,10.5,100,0.72,,,2.73,Rainwise IP-100,2013-06-03 19:05:00,
2013-06-03 15:10:00,61.9,62.0,29.84,West,270,5.8,11.4,100,0.36,,,2.75,Rainwise IP-100,2013-06-03 19:10:00,
2013-06-03 15:15:00,61.9,62.0,29.84,South,180,4.2,8.9,100,0.30,,,2.77,Rainwise IP-100,2013-06-03 19:15:00,
2013-06-03 15:20:00,62.0,62.0,29.84,SW,225,2.3,11.2,100,0.30,,,2.81,Rainwise IP-100,2013-06-03 19:20:00,
2013-06-03 15:25:00,62.0,62.0,29.84,SW,225,8.9,9.6,100,0.30,,,2.83,Rainwise IP-100,2013-06-03 19:25:00,
2013-06-03 15:30:00,62.1,62.0,29.84,SW,225,2.8,10.0,100,0.36,,,2.86,Rainwise IP-100,2013-06-03 19:30:00,
2013-06-03 15:35:00,62.1,62.0,29.84,SSW,202,4.2,13.3,100,0.42,,,2.89,Rainwise IP-100,2013-06-03 19:35:00,
2013-06-03 15:40:00,62.2,62.0,29.84,WSW,247,6.5,9.1,100,0.30,,,2.92,Rainwise IP-100,2013-06-03 19:40:00,
2013-06-03 15:45:00,62.2,62.0,29.84,West,270,6.3,8.9,100,0.54,,,3.00,Rainwise IP-100,2013-06-03 19:45:00,
2013-06-03 15:50:00,62.3,62.5,29.84,SW,225,6.5,11.4,100,0.66,,,3.03,Rainwise IP-100,2013-06-03 19:50:00,
2013-06-03 15:55:00,62.4,62.5,29.84,SW,225,4.0,12.1,100,0.30,,,3.03,Rainwise IP-100,2013-06-03 19:55:00,
2013-06-03 16:00:00,62.3,62.5,29.84,SW,225,5.1,9.3,100,0.12,,,3.04,Rainwise IP-100,2013-06-03 20:00:00,
2013-06-03 16:05:00,62.2,62.0,29.84,SW,225,4.0,9.6,100,0.06,,,3.04,Rainwise IP-100,2013-06-03 20:05:00,
2013-06-03 16:10:00,62.0,62.0,29.83,SSW,202,6.5,9.1,100,0.00,,,3.04,Rainwise IP-100,2013-06-03 20:10:00,
2013-06-03 16:15:00,61.8,62.0,29.83,SW,225,5.6,10.5,100,0.00,,,3.04,Rainwise IP-100,2013-06-03 20:15:00,
2013-06-03 16:20:00,61.6,61.5,29.83,WSW,247,4.4,10.0,100,0.06,,,3.05,Rainwise IP-100,2013-06-03 20:20:00,
2013-06-03 16:25:00,61.4,61.5,29.83,South,180,3.3,8.2,100,0.06,,,3.05,Rainwise IP-100,2013-06-03 20:25:00,
2013-06-03 16:30:00,61.3,61.5,29.83,SSW,202,8.6,11.0,100,0.00,,,3.05,Rainwise IP-100,2013-06-03 20:30:00,
2013-06-03 16:35:00,61.2,61.0,29.82,SW,225,7.5,12.1,100,0.00,,,3.05,Rainwise IP-100,2013-06-03 20:35:00,
2013-06-03 16:40:00,61.3,61.5,29.83,SSW,202,4.0,11.9,100,0.00,,,3.05,Rainwise IP-100,2013-06-03 20:40:00,
2013-06-03 16:45:00,61.6,61.5,29.83,South,180,5.1,10.5,100,0.00,,,3.05,Rainwise IP-100,2013-06-03 20:45:00,
2013-06-03 16:50:00,61.7,61.5,29.82,SW,225,8.2,9.8,100,0.00,,,3.05,Rainwise IP-100,2013-06-03 20:50:00,
2013-06-03 16:55:00,61.8,62.0,29.83,WSW,247,0.0,12.4,100,0.00,,,3.05,Rainwise IP-100,2013-06-03 20:55:00,
2013-06-03 17:00:00,61.9,62.0,29.83,WSW,247,5.8,11.2,100,0.00,,,3.05,Rainwise IP-100,2013-06-03 21:00:00,
2013-06-03 17:05:00,61.8,62.0,29.83,South,180,5.6,11.4,100,0.00,,,3.05,Rainwise IP-100,2013-06-03 21:05:00,
2013-06-03 17:10:00,61.7,61.5,29.83,SSW,202,4.2,13.3,100,0.00,,,3.05,Rainwise IP-100,2013-06-03 21:10:00,
2013-06-03 17:15:00,61.6,61.5,29.83,South,180,7.0,11.2,100,0.00,,,3.05,Rainwise IP-100,2013-06-03 21:15:00,
2013-06-03 17:20:00,61.5,61.5,29.83,SSW,202,6.8,13.1,100,0.00,,,3.05,Rainwise IP-100,2013-06-03 21:20:00,
2013-06-03 17:25:00,61.4,61.5,29.83,SW,225,7.9,10.7,100,0.00,,,3.05,Rainwise IP-100,2013-06-03 21:25:00,
2013-06-03 17:30:00,61.1,61.0,29.83,WNW,292,1.9,11.7,100,0.00,,,3.05,Rainwise IP-100,2013-06-03 21:30:00,
2013-06-03 17:35:00,61.1,61.0,29.82,South,180,5.8,8.2,100,0.00,,,3.05,Rainwise IP-100,2013-06-03 21:35:00,
2013-06-03 17:40:00,61.1,61.0,29.82,SW,225,11.4,11.4,100,0.00,,,3.05,Rainwise IP-100,2013-06-03 21:40:00,
2013-06-03 17:45:00,61.1,61.0,29.82,SSW,202,4.9,13.8,100,0.00,,,3.05,Rainwise IP-100,2013-06-03 21:45:00,
2013-06-03 17:50:00,61.1,61.0,29.82,WSW,247,5.1,8.9,100,0.00,,,3.05,Rainwise IP-100,2013-06-03 21:50:00,
2013-06-03 17:55:00,61.2,61.0,29.82,South,180,7.2,8.9,100,0.00,,,3.05,Rainwise IP-100,2013-06-03 21:55:00,
2013-06-03 18:00:00,61.3,61.5,29.82,West,270,4.7,11.0,100,0.00,,,3.05,Rainwise IP-100,2013-06-03 22:00:00,
2013-06-03 18:05:00,61.2,61.0,29.82,SW,225,6.5,10.0,100,0.00,,,3.05,Rainwise IP-100,2013-06-03 22:05:00,
2013-06-03 18:10:00,61.3,61.5,29.82,SW,225,2.1,10.3,100,0.00,,,3.05,Rainwise IP-100,2013-06-03 22:10:00,
2013-06-03 18:15:00,61.4,61.5,29.81,SSW,202,4.0,8.4,100,0.00,,,3.05,Rainwise IP-100,2013-06-03 22:15:00,
2013-06-03 18:20:00,61.4,61.5,29.82,SSW,202,5.1,12.4,100,0.00,,,3.05,Rainwise IP-100,2013-06-03 22:20:00,
2013-06-03 18:25:00,61.4,61.5,29.82,SW,225,7.0,9.6,100,0.00,,,3.05,Rainwise IP-100,2013-06-03 22:25:00,
2013-06-03 18:30:00,61.4,61.5,29.82,SW,225,2.8,9.8,100,0.00,,,3.05,Rainwise IP-100,2013-06-03 22:30:00,
2013-06-03 18:35:00,61.3,61.5,29.81,SSW,202,2.6,8.9,100,0.00,,,3.05,Rainwise IP-100,2013-06-03 22:35:00,
2013-06-03 18:40:00,61.3,61.5,29.81,SSW,202,2.8,8.6,100,0.00,,,3.05,Rainwise IP-100,2013-06-03 22:40:00,
2013-06-03 18:45:00,61.3,61.5,29.81,SW,225,10.3,10.3,100,0.00,,,3.05,Rainwise IP-100,2013-06-03 22:45:00,
2013-06-03 18:50:00,61.3,61.5,29.82,SSW,202,4.2,10.3,100,0.00,,,3.05,Rainwise IP-100,2013-06-03 22:50:00,
2013-06-03 18:55:00,61.3,61.5,29.82,South,180,1.6,7.0,100,0.00,,,3.05,Rainwise IP-100,2013-06-03 22:55:00,
2013-06-03 19:00:00,61.3,61.5,29.81,SSW,202,5.1,7.0,100,0.00,,,3.05,Rainwise IP-100,2013-06-03 23:00:00,
2013-06-03 19:05:00,61.3,61.5,29.82,WSW,247,6.1,10.7,100,0.00,,,3.05,Rainwise IP-100,2013-06-03 23:05:00,
2013-06-03 19:10:00,61.3,61.5,29.82,SW,225,4.4,8.9,100,0.00,,,3.05,Rainwise IP-100,2013-06-03 23:10:00,
2013-06-03 19:15:00,61.3,61.5,29.82,SSW,202,3.5,8.2,100,0.00,,,3.05,Rainwise IP-100,2013-06-03 23:15:00,
2013-06-03 19:21:00,61.3,61.5,29.82,SSW,202,3.0,5.6,100,0.00,,,3.05,Rainwise IP-100,2013-06-03 23:21:00,
2013-06-03 19:26:00,61.3,61.5,29.82,WNW,292,8.4,8.4,100,0.00,,,3.05,Rainwise IP-100,2013-06-03 23:26:00,
2013-06-03 19:31:00,61.3,61.5,29.82,SSW,202,4.2,11.0,100,0.00,,,3.05,Rainwise IP-100,2013-06-03 23:31:00,
2013-06-03 19:36:00,61.1,61.0,29.83,WSW,247,5.1,8.2,100,0.00,,,3.05,Rainwise IP-100,2013-06-03 23:36:00,
2013-06-03 19:41:00,61.0,61.0,29.83,SSW,202,4.2,7.2,100,0.00,,,3.05,Rainwise IP-100,2013-06-03 23:41:00,
2013-06-03 19:46:00,61.0,61.0,29.82,South,180,2.3,6.3,100,0.00,,,3.05,Rainwise IP-100,2013-06-03 23:46:00,
2013-06-03 19:51:00,61.0,61.0,29.82,WSW,247,4.0,8.9,100,0.00,,,3.05,Rainwise IP-100,2013-06-03 23:51:00,
2013-06-03 19:56:00,60.9,61.0,29.83,SSW,202,7.7,9.8,100,0.00,,,3.05,Rainwise IP-100,2013-06-03 23:56:00,
2013-06-03 20:01:00,60.8,61.0,29.83,South,180,5.1,8.6,100,0.00,,,3.05,Rainwise IP-100,2013-06-04 00:01:00,
2013-06-03 20:06:00,60.8,61.0,29.83,South,180,4.0,10.7,100,0.00,,,3.05,Rainwise IP-100,2013-06-04 00:06:00,
2013-06-03 20:11:00,60.8,61.0,29.83,SW,225,3.5,8.2,100,0.00,,,3.05,Rainwise IP-100,2013-06-04 00:11:00,
2013-06-03 20:16:00,60.8,61.0,29.83,SSW,202,4.4,8.2,100,0.00,,,3.05,Rainwise IP-100,2013-06-04 00:16:00,
2013-06-03 20:21:00,60.8,61.0,29.83,WSW,247,3.7,10.0,100,0.00,,,3.05,Rainwise IP-100,2013-06-04 00:21:00,
2013-06-03 20:26:00,60.8,61.0,29.83,SSW,202,5.8,11.4,100,0.00,,,3.05,Rainwise IP-100,2013-06-04 00:26:00,
2013-06-03 20:31:00,60.8,61.0,29.82,SSW,202,6.3,8.9,100,0.00,,,3.05,Rainwise IP-100,2013-06-04 00:31:00,
2013-06-03 20:36:00,60.8,61.0,29.82,SSW,202,6.5,11.2,100,0.00,,,3.05,Rainwise IP-100,2013-06-04 00:36:00,
2013-06-03 20:41:00,60.9,61.0,29.82,SW,225,5.4,9.1,100,0.00,,,3.05,Rainwise IP-100,2013-06-04 00:41:00,
2013-06-03 20:46:00,60.9,61.0,29.82,SW,225,2.3,11.7,100,0.00,,,3.05,Rainwise IP-100,2013-06-04 00:46:00,
2013-06-03 20:51:00,61.0,61.0,29.81,SW,225,5.4,9.6,100,0.00,,,3.05,Rainwise IP-100,2013-06-04 00:51:00,
2013-06-03 20:56:00,61.1,61.0,29.82,SSW,202,7.2,11.4,100,0.00,,,3.05,Rainwise IP-100,2013-06-04 00:56:00,
2013-06-03 21:01:00,61.1,61.0,29.81,SSW,202,4.0,9.8,100,0.00,,,3.05,Rainwise IP-100,2013-06-04 01:01:00,
2013-06-03 21:06:00,61.0,61.0,29.81,SSW,202,3.7,7.9,100,0.00,,,3.05,Rainwise IP-100,2013-06-04 01:06:00,
2013-06-03 21:11:00,61.0,61.0,29.82,SW,225,2.1,10.7,100,0.00,,,3.05,Rainwise IP-100,2013-06-04 01:11:00,
2013-06-03 21:16:00,60.9,61.0,29.82,South,180,1.2,6.5,100,0.00,,,3.05,Rainwise IP-100,2013-06-04 01:16:00,
2013-06-03 21:21:00,60.9,61.0,29.82,SW,225,4.2,6.3,100,0.00,,,3.05,Rainwise IP-100,2013-06-04 01:21:00,
2013-06-03 21:26:00,60.8,61.0,29.82,West,270,3.7,6.5,100,0.00,,,3.05,Rainwise IP-100,2013-06-04 01:26:00,
2013-06-03 21:31:00,60.7,60.5,29.82,SW,225,2.6,6.5,100,0.00,,,3.05,Rainwise IP-100,2013-06-04 01:31:00,
2013-06-03 21:36:00,60.7,60.5,29.82,SSW,202,2.6,5.4,100,0.00,,,3.05,Rainwise IP-100,2013-06-04 01:36:00,
2013-06-03 21:41:00,60.6,60.5,29.82,SW,225,3.0,7.2,100,0.00,,,3.05,Rainwise IP-100,2013-06-04 01:41:00,
2013-06-03 21:46:00,60.6,60.5,29.82,North,360,4.9,6.3,100,0.00,,,3.05,Rainwise IP-100,2013-06-04 01:46:00,
2013-06-03 21:51:00,60.5,60.5,29.82,SW,225,2.3,7.7,100,0.00,,,3.05,Rainwise IP-100,2013-06-04 01:51:00,
2013-06-03 21:56:00,60.4,60.5,29.82,SW,225,4.0,5.8,100,0.00,,,3.05,Rainwise IP-100,2013-06-04 01:56:00,
2013-06-03 22:01:00,60.4,60.5,29.83,South,180,0.0,4.9,100,0.00,,,3.05,Rainwise IP-100,2013-06-04 02:01:00,
2013-06-03 22:06:00,60.4,60.5,29.83,SSW,202,5.1,5.1,100,0.00,,,3.05,Rainwise IP-100,2013-06-04 02:06:00,
2013-06-03 22:11:00,60.4,60.5,29.83,WSW,247,3.5,5.8,100,0.00,,,3.05,Rainwise IP-100,2013-06-04 02:11:00,
2013-06-03 22:16:00,60.4,60.5,29.82,WSW,247,1.6,4.9,100,0.00,,,3.05,Rainwise IP-100,2013-06-04 02:16:00,
2013-06-03 22:21:00,60.4,60.5,29.82,WSW,247,3.0,5.8,100,0.00,,,3.05,Rainwise IP-100,2013-06-04 02:21:00,
2013-06-03 22:26:00,60.3,60.5,29.83,SW,225,3.3,5.4,100,0.00,,,3.05,Rainwise IP-100,2013-06-04 02:26:00,
2013-06-03 22:31:00,60.3,60.5,29.82,North,360,1.2,5.8,100,0.00,,,3.05,Rainwise IP-100,2013-06-04 02:31:00,
2013-06-03 22:36:00,60.3,60.5,29.82,North,360,0.0,4.4,100,0.00,,,3.05,Rainwise IP-100,2013-06-04 02:36:00,
2013-06-03 22:41:00,60.4,60.5,29.83,WSW,247,3.0,4.9,100,0.00,,,3.05,Rainwise IP-100,2013-06-04 02:41:00,
2013-06-03 22:46:00,60.4,60.5,29.83,North,360,0.0,3.3,100,0.00,,,3.05,Rainwise IP-100,2013-06-04 02:46:00,
2013-06-03 22:51:00,60.4,60.5,29.82,WNW,292,0.0,2.3,100,0.00,,,3.05,Rainwise IP-100,2013-06-04 02:51:00,
2013-06-03 22:56:00,60.5,60.5,29.82,WNW,292,0.0,1.6,100,0.00,,,3.05,Rainwise IP-100,2013-06-04 02:56:00,
2013-06-03 23:01:00,60.6,60.5,29.82,SSW,202,0.0,2.6,100,0.00,,,3.05,Rainwise IP-100,2013-06-04 03:01:00,
2013-06-03 23:06:00,60.7,60.5,29.82,WSW,247,1.2,1.6,100,0.00,,,3.05,Rainwise IP-100,2013-06-04 03:06:00,
2013-06-03 23:11:00,60.7,60.5,29.82,WSW,247,0.0,3.0,100,0.00,,,3.05,Rainwise IP-100,2013-06-04 03:11:00,
2013-06-03 23:16:00,60.8,61.0,29.82,SW,225,2.1,3.5,100,0.00,,,3.05,Rainwise IP-100,2013-06-04 03:16:00,
2013-06-03 23:21:00,60.8,61.0,29.82,WSW,247,3.0,4.4,100,0.00,,,3.05,Rainwise IP-100,2013-06-04 03:21:00,
2013-06-03 23:26:00,60.8,61.0,29.81,WSW,247,0.0,4.2,100,0.00,,,3.05,Rainwise IP-100,2013-06-04 03:26:00,
2013-06-03 23:31:00,60.9,61.0,29.81,SSW,202,3.3,3.7,100,0.00,,,3.05,Rainwise IP-100,2013-06-04 03:31:00,
2013-06-03 23:36:00,60.8,61.0,29.81,WSW,247,1.9,3.7,100,0.00,,,3.05,Rainwise IP-100,2013-06-04 03:36:00,
2013-06-03 23:41:00,60.8,61.0,29.81,WSW,247,3.5,3.5,100,0.00,,,3.05,Rainwise IP-100,2013-06-04 03:41:00,
2013-06-03 23:46:00,60.9,61.0,29.81,WSW,247,0.0,4.0,100,0.00,,,3.05,Rainwise IP-100,2013-06-04 03:46:00,
2013-06-03 23:51:00,60.8,61.0,29.81,WSW,247,0.0,2.1,100,0.00,,,3.05,Rainwise IP-100,2013-06-04 03:51:00,
2013-06-03 23:56:00,60.8,61.0,29.81,North,360,1.2,2.3,100,0.00,,,3.05,Rainwise IP-100,2013-06-04 03:56:00,